Location: Cherryland
(37.6794°N, 122.1033°W)
Time: 14:46:22
(UTC+00:00)

NOSS 8 (A) - Pass Details

Date: 14 December 2025
Orbit: 356 x 1377 km, 63.3° (Epoch: 18 January)

Event Time Altitude Azimuth Distance (km) Brightness Sun altitude
Exits shadow 13:37:12 44° 357° (N) 582 4.7 -18.9°
Maximum altitude 13:38:00 63° 57° (ENE) 476 4.6 -18.7°
Drops below altitude 10° 13:41:35 10° 139° (SE) 1,678 8.1 -18.0°
Sets 13:44:01 0° 143° (SE) 2,710 9.2 -17.6°
